Regional Weather Roundup
Issued by NWS Cleveland, OH

Home | Current Version | Previous Version | Graphics & Text | Print | Product List | Glossary On
Versions: 1 2 3 4 5 6 7 8 9 10 11 12 13 14 15 16 17 18 19 20 21 22 23 24 25 26 27 28 29 30 31 32 33 34 35 36 37 38 39 40 41 42 43 44 45 46 47 48 49 50
000
ASUS41 KCLE 161400
RWRCLE
OHIO REGIONAL WEATHER ROUNDUP
NATIONAL WEATHER SERVICE WILMINGTON, OH
1000 AM EDT WED AUG 16 2017

NOTE: "FAIR" INDICATES FEW OR NO CLOUDS BELOW 12,000 FEET WITH NO
SIGNIFICANT WEATHER AND/OR OBSTRUCTIONS TO VISIBILITY.

OHZ001>008-015>018-024>027-034-035-043-044-161500-
   NORTHWEST OHIO

CITY           SKY/WX    TMP DP  RH WIND       PRES   REMARKS
DEFIANCE       FAIR      73  65  75 E7        30.06S
FINDLAY        FAIR      76  65  68 SE8       30.06S
TOLEDO EXPRESS FAIR      75  64  68 E10       30.07S
TOLEDO EXEC    FAIR      76  66  71 SE9       30.08S
LIMA           PTSUNNY   76  70  82 VRB3      30.06R
$$

OHZ009>014-019>023-028>033-038-089-161500-
   NORTHEAST OHIO

CITY           SKY/WX    TMP DP  RH WIND       PRES   REMARKS
CLE-HOPKINS    FAIR      76  60  57 CALM      30.10S
CLE-LAKEFRONT  FAIR      75  62  64 N5        30.08S
CUY CO. ARPT   SUNNY     75  66  73 NE8       30.10S
LORAIN-ELYRIA  FAIR      72  60  66 SE6       30.10R
ASHTABULA      FAIR      71  65  81 CALM      30.11R
AKRON-CANTON   FAIR      75  60  59 E3        30.10S
WOOSTER        NOT AVBL
MANSFIELD      FAIR      74  64  71 E8        30.10R
YOUNGSTOWN     FAIR      72  61  68 NE5       30.10S
$$

OHZ042-051>053-060>062-070>072-077>081-161500-
  SOUTHWEST OHIO

CITY           SKY/WX    TMP DP  RH WIND       PRES   REMARKS
CINC-COVINGTON FAIR      81  70  69 VRB7      30.05R
CINC-LUNKEN    FAIR      77  73  87 SW3       30.05R
HAMILTON       FAIR      80  71  74 VRB3      30.05S
DAYTON         NOT AVBL
WRIGHT-PAT AFB NOT AVBL
DAYTON GENERAL FAIR      79  68  69 S3        30.05S
WILMINGTON     FAIR      79  71  76 CALM      30.06R
$$

OHZ036-037-039>041-045>050-054>059-063>069-073>076-082>088-161500-
  CENTRAL AND SOUTHEAST OHIO

CITY           SKY/WX    TMP DP  RH WIND       PRES   REMARKS
COLUMBUS       FAIR      77  71  82 E5        30.06R
OSU AIRPORT    PTSUNNY   77  70  79 E7        30.06R
BOLTON FIELD   SUNNY     75  70  83 SE3       30.06S
RICKENBACK AFB NOT AVBL
NEWARK         FAIR      75  69  81 E5        30.07S
MARION         FAIR      75  66  73 SE6       30.08R
LANCASTER      FAIR      77  69  76 VRB3      30.07S
ZANESVILLE     PTSUNNY   73  67  81 CALM      30.08R
NEW PHILLY     FAIR      77  66  68 N5        30.09S
$$




USA.gov is the U.S. government's official web portal to all federal, state and local government web resources and services.